Theta_e
349 350 351 352 352 352 349 349 348 348 348 347 347 345 345 346 346 347 349 349 349 351 352 353 355 355 353 351 351 351 351 351 349 352 353 353 353 352 350 349 347 348 351 352 352 352 352 352 351 352 353 353 352 352 352 353 353 354 354 353 353 352 352 352 352 351 351 351 352 351 350 350 351 352 352 352 352 352 352 353 351 349 350 349 349
349 352 353 351 352 350 348 347 348 350 349 348 347 346 346 347 348 348 350 349 350 352 351 352 354 353 352 351 350 351 351 350 349 351 351 351 353 353 351 350 349 350 351 352 352 352 352 351 352 353 354 353 353 353 353 353 353 353 354 353 353 353 353 352 352 352 352 353 352 350 350 350 351 351 352 351 352 352 352 352 351 350 351 350 349
349 353 352 351 351 348 347 347 348 350 349 348 348 348 347 347 349 350 351 351 352 353 353 353 353 352 351 350 351 351 351 351 350 351 351 351 353 353 352 351 351 350 351 352 352 352 352 352 352 352 353 353 354 354 353 354 354 353 353 353 353 353 352 351 351 352 352 352 351 350 350 351 351 351 351 351 351 352 351 351 350 350 350 350 349
352 353 350 350 351 350 349 348 347 348 348 348 347 349 349 348 350 351 352 353 354 354 355 354 352 352 352 351 351 353 353 353 352 352 352 353 354 354 352 351 351 350 351 352 352 352 351 351 351 351 351 353 353 353 353 353 354 353 352 352 353 353 351 351 351 352 352 352 352 351 351 351 351 351 352 352 352 351 350 350 350 349 349 349 348
353 352 350 351 352 353 352 350 349 349 350 351 349 349 349 349 350 352 353 353 354 355 355 354 352 353 353 352 352 353 353 354 353 352 352 353 354 354 353 352 353 351 351 352 352 351 350 350 350 351 351 351 351 352 353 353 353 352 351 352 353 353 353 352 353 352 352 352 352 351 351 351 351 351 351 352 352 351 350 350 349 348 349 349 349
351 351 352 352 352 352 352 352 351 351 351 352 351 352 352 352 352 353 353 353 353 354 355 354 355 354 353 353 352 353 352 352 351 351 352 353 354 353 353 353 353 352 352 352 351 349 351 351 350 351 350 350 351 352 353 354 353 351 349 351 353 353 353 353 352 352 351 351 351 351 351 351 351 352 351 351 351 351 350 350 349 349 349 349 348
350 350 352 353 352 352 353 352 352 352 351 352 352 352 352 352 352 353 352 353 353 353 354 354 355 355 354 353 353 352 352 352 351 351 353 353 354 354 354 353 352 351 352 352 351 350 351 352 350 351 351 351 352 352 353 354 353 349 347 348 352 353 353 353 352 351 351 351 350 350 351 350 350 351 351 350 350 351 351 350 350 350 350 349 349
350 350 351 353 352 351 352 352 352 351 350 350 350 350 350 351 352 352 352 353 354 354 354 354 354 355 354 353 353 352 352 351 351 352 353 353 354 353 352 352 351 351 352 352 352 351 350 352 352 351 352 352 352 352 352 352 350 347 346 348 352 354 353 353 351 351 351 350 350 350 351 350 350 350 350 350 350 350 350 350 350 350 350 350 349
352 351 351 352 351 350 350 350 350 349 348 348 349 349 349 350 351 352 352 352 353 353 353 353 353 354 353 353 352 351 351 351 351 353 353 353 353 352 351 351 350 349 350 351 352 351 351 352 352 352 352 353 353 352 351 348 347 347 347 349 353 355 354 352 351 351 351 351 350 349 349 350 350 349 350 349 349 349 350 350 350 350 350 349 348
351 350 351 352 350 348 349 349 349 348 348 349 349 349 349 350 351 352 352 352 351 351 352 352 352 353 353 352 351 350 350 350 352 352 353 354 353 351 351 352 349 346 348 351 352 351 352 353 352 352 353 353 354 352 350 347 347 347 347 350 353 354 354 352 350 350 351 351 350 349 349 350 349 349 349 348 348 350 350 350 350 350 350 349 348
349 350 352 352 350 348 348 349 349 348 348 349 349 349 349 350 351 352 352 351 349 349 350 350 351 353 352 351 351 351 351 352 353 353 354 352 352 352 351 351 347 345 347 350 351 351 352 353 353 352 353 353 352 350 348 347 346 347 348 351 352 353 353 350 350 350 350 350 350 349 349 349 347 347 348 348 349 350 350 350 350 350 350 349 348
350 353 352 350 349 349 349 349 348 347 348 348 348 349 350 351 351 352 353 350 349 349 349 349 350 351 352 352 352 352 353 353 353 353 353 352 351 351 351 350 347 346 348 349 350 351 352 352 352 352 351 350 349 347 346 345 345 347 349 350 351 351 351 350 350 351 350 349 348 348 349 348 346 346 346 348 349 349 349 349 349 349 349 348 348
351 353 353 350 349 349 348 348 347 347 347 349 349 350 351 351 352 353 352 350 349 350 350 350 350 351 351 351 351 352 353 353 352 353 353 352 351 350 350 350 348 348 349 351 351 351 352 351 351 350 348 347 345 343 342 343 344 346 348 349 350 350 351 351 351 351 350 349 348 348 348 347 346 346 347 348 349 349 349 348 348 348 348 348 348
351 353 354 352 351 350 348 347 348 348 349 351 351 350 349 350 351 351 352 351 351 352 351 350 351 352 351 351 351 352 353 352 351 352 352 351 351 351 350 350 350 350 350 351 351 351 351 350 349 348 346 344 340 338 337 337 339 343 346 348 349 349 349 351 351 350 350 349 349 348 346 345 345 346 348 349 349 349 349 349 348 348 348 348 348
351 354 355 353 352 349 348 348 349 349 350 351 351 350 350 350 350 351 352 352 351 351 351 351 350 351 351 351 351 351 352 351 350 351 351 349 350 350 350 350 351 351 349 350 350 349 349 349 349 348 345 340 337 334 334 334 335 341 346 346 347 349 348 348 349 350 350 349 349 348 344 343 344 345 347 348 348 349 349 348 348 349 348 347 347
352 354 355 354 351 350 349 350 351 350 350 350 351 351 351 351 351 351 352 352 351 350 350 351 350 351 351 351 351 351 351 351 350 351 350 350 349 350 350 350 350 350 349 348 348 348 348 348 348 347 343 337 335 335 335 335 337 342 345 345 347 348 347 347 348 349 349 348 348 347 343 342 343 345 346 346 347 347 348 348 347 347 348 348 348
353 353 353 354 352 351 351 351 352 352 351 350 350 351 351 350 351 351 352 351 350 349 350 351 351 351 351 350 351 351 351 351 351 351 351 350 350 349 349 350 349 349 348 347 347 346 347 347 346 345 340 336 336 337 338 339 340 343 345 345 346 347 348 347 348 348 349 348 348 346 342 341 343 343 344 345 344 345 346 346 346 346 346 347 348
353 351 351 353 352 351 351 351 352 352 352 351 351 350 349 350 350 350 350 350 350 349 349 351 351 351 350 350 351 352 351 351 352 351 351 351 350 349 349 349 348 349 349 346 345 346 346 346 346 343 339 337 337 339 339 341 343 344 345 345 345 346 348 346 347 348 348 348 346 342 340 341 342 342 343 343 341 341 342 342 343 343 343 345 346
351 351 351 352 353 352 351 350 351 353 352 352 351 350 350 350 350 350 350 350 350 350 350 351 351 350 350 350 351 351 351 351 351 351 351 351 351 349 350 349 349 350 350 348 348 348 346 345 345 342 339 338 338 339 339 341 344 345 345 345 345 346 347 346 345 347 348 347 342 338 339 340 341 342 341 341 340 339 340 339 340 340 340 343 345
352 352 352 352 353 353 352 351 353 352 351 351 351 350 350 351 351 350 349 350 349 350 351 351 351 350 349 350 351 351 351 351 351 351 351 351 350 349 349 349 350 351 351 350 351 351 347 343 343 342 340 340 339 339 339 341 345 346 346 346 347 346 346 345 344 346 347 344 339 337 338 339 339 341 341 341 342 342 343 342 342 341 340 343 345
352 353 354 353 352 351 350 351 352 351 350 351 352 351 351 351 351 349 349 349 350 351 351 350 349 350 349 350 350 350 351 351 350 350 350 351 350 350 349 348 349 350 351 350 349 348 345 343 343 341 340 340 339 339 339 342 345 345 346 347 346 347 346 345 345 347 347 340 336 336 337 337 338 341 342 343 344 344 344 344 345 345 343 344 345
353 353 354 355 354 353 351 349 349 352 352 349 350 351 351 351 351 350 350 349 351 352 351 349 349 350 350 349 350 350 350 350 350 350 350 351 350 351 351 349 349 350 350 348 346 345 344 343 342 340 340 341 341 340 340 341 344 345 347 347 346 347 346 345 345 347 347 339 336 338 337 338 339 342 344 345 345 345 345 345 347 347 346 346 345
353 353 354 354 353 353 353 350 349 351 351 347 348 350 350 351 352 352 352 351 351 351 351 350 350 350 350 349 349 350 350 350 350 351 351 351 351 351 351 350 350 349 346 345 345 344 343 342 341 343 346 349 348 348 347 345 347 346 346 346 345 346 346 345 345 347 347 340 337 339 339 339 341 344 347 347 347 346 345 346 347 347 347 348 346
352 354 354 352 350 351 352 352 350 349 350 349 348 348 349 351 353 353 353 353 352 352 352 351 350 350 349 348 348 349 350 351 351 351 351 351 350 350 349 349 348 345 344 345 345 344 343 342 344 347 350 352 352 352 351 350 349 348 347 346 345 346 345 345 346 347 346 340 338 340 340 341 341 346 348 348 348 347 345 344 346 347 347 348 348
351 352 353 352 350 349 351 352 351 350 350 350 349 349 350 351 353 352 351 352 352 353 352 351 350 349 348 347 347 349 350 351 351 351 352 350 348 347 346 346 345 343 343 344 343 342 343 344 347 349 351 353 352 350 349 348 347 345 346 345 345 345 343 344 346 347 344 337 336 338 340 341 342 346 349 348 348 347 346 345 345 346 346 347 347
349 352 353 352 351 350 351 352 350 350 351 351 349 349 349 349 351 351 348 348 352 353 352 352 352 351 350 349 348 350 351 351 351 351 351 351 349 347 346 344 343 344 344 345 345 345 346 348 350 351 351 353 351 348 346 344 343 343 343 343 344 344 342 345 346 347 346 337 333 336 337 340 341 345 347 348 348 347 346 346 346 345 345 346 347
347 351 353 352 351 352 351 351 351 351 352 351 349 349 348 350 351 352 348 347 350 352 353 353 353 353 351 351 350 351 352 352 352 351 351 351 351 349 348 347 347 347 349 349 348 349 351 351 351 352 350 350 347 345 344 342 343 342 343 343 343 343 343 344 345 348 347 337 332 333 334 337 339 340 341 343 345 346 346 347 346 345 345 347 348
347 349 352 352 351 352 352 351 352 351 352 350 349 349 348 349 352 352 350 348 351 352 353 353 353 354 353 352 352 351 352 352 351 351 351 351 351 351 350 350 350 348 349 349 347 348 350 351 352 351 348 347 344 342 343 343 343 342 343 343 342 342 342 341 344 348 346 342 338 332 332 334 335 335 336 337 339 343 346 346 346 346 346 347 349
347 348 351 352 351 352 352 352 352 352 351 348 347 349 349 349 349 349 350 350 350 351 352 353 352 351 352 353 352 350 351 352 351 351 350 350 350 351 350 351 350 346 346 347 348 348 349 349 351 350 347 345 344 343 343 343 342 342 343 342 341 341 342 340 341 347 349 349 344 332 330 333 332 333 334 334 334 336 339 340 343 345 344 342 343
346 348 349 350 351 352 352 352 351 351 350 349 347 349 350 350 349 349 350 349 348 348 352 354 351 347 348 352 352 349 349 350 351 350 349 350 349 350 349 349 350 347 346 348 348 349 349 349 349 349 348 345 345 345 344 343 342 342 344 343 343 341 342 342 339 343 348 350 346 335 329 328 329 330 330 330 330 331 331 333 335 335 335 333 333
347 348 349 349 350 350 352 352 350 350 350 350 349 350 351 351 351 350 351 350 348 348 351 354 353 348 346 349 352 350 349 349 349 350 350 350 350 349 348 349 349 348 348 348 348 349 350 351 351 351 350 347 346 346 345 344 343 343 344 343 343 343 344 345 343 342 345 348 348 342 330 325 327 326 326 327 327 328 327 328 328 328 329 330 332
348 348 349 349 349 349 350 351 351 352 350 350 350 351 353 353 351 351 353 353 350 348 350 353 353 351 348 348 351 350 349 348 349 350 349 349 349 348 348 349 348 348 349 349 350 350 351 353 353 352 351 349 347 347 346 344 344 343 343 343 342 344 346 345 343 339 341 345 347 349 339 327 324 324 324 325 325 326 325 326 326 328 331 335 339
348 348 348 348 349 350 349 350 352 352 351 351 352 353 353 353 352 352 353 353 351 350 350 352 352 351 352 351 351 349 349 348 348 349 349 348 348 348 348 348 349 349 351 352 352 351 351 352 353 352 351 349 347 346 345 342 343 343 342 343 341 340 344 343 340 339 341 344 346 350 345 334 329 326 325 325 325 326 326 326 328 332 338 343 346
349 347 348 349 349 349 349 350 351 352 352 352 353 354 353 351 352 352 353 351 350 350 351 352 352 353 354 353 351 350 349 348 349 349 349 349 349 348 348 350 350 351 352 352 352 351 351 351 351 351 350 348 346 345 345 342 342 344 343 342 342 342 344 344 342 343 344 344 345 346 344 342 341 335 335 337 331 326 327 328 333 339 344 347 349
348 347 348 349 348 349 349 348 350 351 352 352 352 353 353 352 352 353 352 350 349 349 350 351 352 353 354 354 353 352 351 350 350 349 349 349 348 348 349 350 351 352 353 353 352 351 351 352 351 350 350 348 346 344 344 343 341 344 345 342 344 345 344 344 343 344 343 342 344 345 345 346 346 344 348 351 343 331 329 334 339 344 347 349 349
347 348 350 349 349 350 349 348 350 351 351 352 352 352 353 352 352 353 350 348 347 347 348 348 349 351 353 355 354 353 353 352 351 350 349 348 348 350 350 352 353 352 353 353 351 350 351 353 352 351 353 349 346 345 344 345 342 342 344 341 344 344 342 344 345 343 342 343 343 344 347 347 348 349 349 353 351 340 333 337 342 345 348 349 348
347 348 350 349 350 351 349 348 349 351 352 353 354 354 354 353 353 352 350 347 346 345 345 345 346 348 352 354 354 354 354 354 352 352 351 349 349 351 352 354 354 352 353 353 351 351 351 354 355 354 354 351 349 346 343 344 343 343 343 340 343 344 343 346 347 343 342 343 343 345 347 345 345 347 349 351 353 349 343 341 344 345 347 349 348
348 349 350 350 351 351 350 349 350 352 353 354 355 355 354 353 352 351 351 348 345 345 344 343 345 346 350 353 353 354 354 355 354 355 353 350 350 351 353 356 354 353 354 354 353 353 351 352 355 355 354 353 352 348 344 344 342 342 343 342 342 344 343 345 345 342 342 343 343 346 346 343 344 348 351 352 350 351 351 349 348 347 346 347 347
347 348 351 351 350 351 351 350 351 352 353 355 355 355 354 353 352 352 351 348 346 346 345 345 345 346 350 352 353 353 354 355 356 356 354 352 352 353 356 356 354 354 356 353 353 355 355 354 356 357 356 353 352 348 344 345 344 343 342 341 343 345 344 344 345 344 343 342 342 344 343 343 345 346 347 347 347 349 351 353 353 352 349 349 349
346 349 351 351 352 353 353 352 352 353 353 355 354 354 355 353 352 353 353 351 347 346 347 346 346 348 351 352 353 354 354 354 355 356 355 353 354 355 355 354 354 355 354 353 353 355 357 357 356 357 357 354 351 347 343 345 344 342 342 342 343 345 344 343 344 343 342 340 341 344 344 342 342 344 345 345 347 347 348 352 352 354 355 352 352
347 349 352 353 354 355 354 353 353 353 353 355 354 353 353 353 353 352 354 353 349 348 348 347 349 350 351 353 355 355 355 355 355 356 356 354 354 356 355 354 354 354 354 355 355 355 358 358 356 356 357 355 351 345 343 344 343 342 344 343 341 342 343 345 345 342 341 340 341 343 343 342 341 343 344 343 345 344 345 349 348 350 354 353 355
348 350 352 354 355 355 355 355 354 354 353 353 353 353 353 354 353 352 353 354 352 351 349 348 350 350 351 353 354 355 356 356 356 356 356 355 355 357 356 354 355 354 355 357 356 357 360 358 357 356 355 354 351 345 342 344 345 343 343 346 346 343 339 341 344 344 343 341 339 341 340 342 342 341 340 340 342 343 343 345 343 347 351 353 355
349 350 352 354 355 356 355 356 355 354 353 351 352 353 353 354 353 352 353 353 353 352 351 351 351 352 352 352 354 355 355 356 357 357 356 355 356 357 356 355 357 355 356 358 356 357 359 357 356 356 355 354 350 343 342 346 348 344 346 354 353 350 351 347 343 342 342 340 339 339 339 341 342 341 341 340 342 345 344 343 345 349 351 351 351
349 351 353 354 356 356 356 357 355 353 352 351 353 353 353 355 354 351 352 352 353 353 352 353 352 353 353 354 356 355 353 356 357 356 356 355 356 356 356 358 358 356 355 357 357 356 357 356 355 356 357 357 351 344 344 346 349 351 358 364 353 356 369 359 345 341 338 339 338 337 338 339 340 340 343 344 344 345 342 342 347 350 350 351 350
348 351 352 353 356 357 357 358 355 354 354 352 354 356 357 358 355 353 354 353 354 354 353 353 352 352 353 355 357 355 354 356 354 354 355 355 356 355 355 358 358 357 356 357 357 356 356 356 354 354 355 357 354 349 347 344 347 352 358 364 364 372 374 354 349 352 341 337 340 336 337 339 338 339 342 343 342 342 341 341 346 350 351 351 350
347 350 352 352 356 358 358 359 357 356 355 354 356 358 360 359 357 357 358 357 357 356 354 354 353 352 353 355 356 355 355 354 353 354 355 355 357 356 356 358 357 357 357 357 357 354 355 356 354 355 355 355 356 355 352 345 346 350 349 354 360 368 366 357 365 368 347 339 340 336 336 337 338 339 341 341 340 342 343 342 346 350 352 351 348
347 350 350 351 356 359 360 360 359 358 357 358 359 359 359 359 358 359 360 357 357 356 355 355 353 352 353 354 355 355 355 355 353 354 355 356 357 357 357 358 357 356 355 356 356 354 355 355 355 358 355 353 357 359 355 349 347 348 349 349 347 348 351 357 369 373 366 360 346 336 337 337 338 340 340 341 340 342 342 341 345 349 350 350 347
349 349 350 351 356 360 361 361 360 360 359 360 360 359 359 359 357 357 358 356 356 356 355 354 353 352 354 354 354 354 355 355 353 354 356 356 357 357 355 357 358 356 355 357 356 355 356 354 355 358 355 353 357 359 355 352 350 348 348 350 349 346 345 348 354 359 369 374 360 346 343 339 338 340 340 341 340 340 340 339 342 346 347 347 347
350 350 350 351 356 359 361 361 361 361 361 360 360 359 359 359 357 355 355 354 355 357 354 352 352 352 355 355 354 354 355 356 354 355 357 356 356 357 355 357 359 358 357 357 355 354 356 355 355 356 356 356 358 357 354 353 354 351 349 349 350 351 348 345 344 344 354 372 374 359 347 342 343 342 340 340 341 341 341 341 341 343 346 346 347
351 350 351 352 355 358 360 361 361 361 361 360 360 359 358 359 356 353 353 353 355 355 352 353 354 354 356 356 355 355 356 358 356 355 357 356 356 357 357 358 359 358 357 356 354 356 357 357 356 356 358 358 357 356 355 355 355 353 351 351 352 353 351 347 346 346 348 359 369 357 343 343 348 347 343 342 343 343 342 343 342 344 345 345 346
351 350 352 354 356 358 359 361 361 361 362 360 360 360 359 359 356 352 352 353 356 355 354 357 357 356 357 358 358 357 357 359 358 356 357 357 357 358 358 357 359 358 357 357 356 356 356 356 357 357 357 357 357 357 356 357 356 353 351 351 352 350 349 347 346 348 346 348 359 357 344 343 347 345 344 345 343 342 343 343 343 345 345 345 346
Wind_Speed
14 14 15 16 15 14 14 15 15 15 14 13 12 13 13 13 13 14 14 14 14 14 12 12 10 10 11 12 13 14 14 14 14 15 14 15 15 17 18 18 20 20 20 20 19 19 19 19 18 18 18 18 18 18 19 19 18 18 18 18 19 19 19 20 20 20 20 20 19 19 19 18 18 18 17 17 16 16 16 17 17 17 18 17 17
17 14 13 15 15 15 16 15 15 14 14 13 13 13 13 13 13 14 13 13 14 13 11 12 10 11 12 13 14 14 14 14 14 15 15 15 15 16 17 18 19 19 19 19 18 17 17 18 18 18 17 18 18 17 17 17 17 18 18 19 19 19 19 20 20 20 19 19 19 19 20 19 19 18 18 17 16 17 17 16 17 17 17 17 17
19 15 14 16 16 16 16 16 15 13 12 12 12 12 12 13 13 13 13 12 12 12 11 11 11 12 13 14 14 14 14 14 15 16 16 16 16 17 17 18 18 18 18 18 17 16 17 18 18 17 17 17 17 16 16 16 17 17 18 18 18 19 20 20 19 19 19 19 19 19 20 20 18 18 18 18 17 18 18 17 17 17 17 17 17
19 18 17 17 16 15 15 15 15 14 12 11 12 11 11 12 12 12 12 11 11 11 11 11 12 13 14 14 14 14 14 14 15 15 16 17 17 17 17 17 17 17 18 17 17 16 16 17 18 17 17 16 16 15 16 15 15 17 17 17 17 18 19 19 19 18 18 18 18 17 19 19 18 18 18 18 18 18 19 18 18 17 16 16 16
21 20 19 17 16 15 14 14 14 14 13 11 11 11 10 10 10 11 10 10 10 11 11 11 12 13 14 14 14 14 13 14 15 16 17 18 17 16 17 17 16 17 17 17 16 16 16 16 17 16 16 16 16 16 15 15 15 16 17 17 17 18 18 18 17 17 17 17 17 17 17 18 18 18 18 18 18 18 18 18 17 17 16 16 16
22 20 19 18 16 16 14 13 14 14 13 11 11 11 9 9 9 9 10 10 11 11 11 12 12 13 13 14 14 13 13 14 15 16 17 17 17 16 16 16 16 17 16 16 16 16 16 16 16 16 15 15 15 16 15 15 15 16 17 17 17 16 15 16 16 16 16 17 17 17 17 17 17 17 17 17 17 16 17 16 16 15 15 15 16
23 22 20 19 17 16 15 14 13 13 12 11 11 11 10 9 9 9 9 10 11 11 11 12 12 12 13 14 14 13 13 14 15 16 17 16 16 16 16 16 17 17 15 15 15 16 15 15 15 15 15 14 15 15 15 14 15 16 17 17 17 16 14 14 14 14 15 15 16 16 16 16 16 16 16 16 16 16 16 15 14 15 14 14 14
23 22 20 19 18 17 15 14 13 12 12 11 11 10 10 10 10 10 10 11 11 11 11 11 12 12 13 14 13 13 13 14 15 15 16 16 16 17 16 16 16 16 15 15 15 15 15 15 14 15 14 14 15 15 15 15 15 16 16 17 16 15 14 13 13 15 16 15 16 16 15 16 16 16 15 15 15 16 15 15 14 14 14 13 13
23 22 21 20 19 18 15 14 13 12 11 11 11 10 10 10 10 9 10 11 11 11 11 11 12 12 12 13 12 13 13 14 15 15 15 15 16 17 17 16 16 16 15 15 15 15 15 15 15 15 15 14 14 15 15 16 16 16 16 16 15 13 11 12 14 17 17 16 17 16 16 16 17 16 15 15 16 16 16 15 14 14 14 13 14
23 22 21 20 19 17 15 14 11 11 11 12 11 10 10 9 9 9 9 9 10 10 10 10 12 12 12 12 13 13 13 14 14 15 14 15 17 17 16 15 16 17 16 16 15 15 15 15 15 15 15 14 14 14 14 15 15 16 15 14 12 10 10 13 16 17 16 16 17 16 16 16 17 16 15 15 15 15 15 15 14 14 14 13 14
23 22 21 21 19 16 15 13 11 11 11 11 11 10 9 8 8 8 8 8 9 9 9 10 12 12 11 12 13 13 13 14 14 14 14 15 17 17 16 15 16 17 18 18 16 16 15 15 16 15 15 14 14 13 13 13 14 14 14 14 12 9 11 15 17 16 15 17 16 16 16 16 17 16 15 15 14 14 14 14 14 14 13 13 13
23 23 22 21 18 16 14 12 12 11 10 11 10 9 8 8 8 8 8 7 8 9 9 10 11 12 12 12 12 12 12 13 14 14 14 15 16 17 17 15 16 18 18 18 17 16 15 15 16 16 15 14 14 13 13 12 12 13 13 15 12 9 12 14 16 15 14 16 17 16 16 17 17 16 14 14 13 13 13 13 13 13 13 12 12
23 22 22 20 17 15 14 13 13 12 11 11 10 10 9 9 8 8 8 8 8 9 10 10 11 12 13 13 12 12 12 12 14 14 14 15 16 16 16 15 16 17 17 17 16 16 16 16 16 16 15 14 14 13 13 12 12 12 13 15 13 10 12 14 15 16 14 16 16 16 16 17 17 15 14 13 13 13 13 13 13 13 13 12 12
23 22 21 19 17 15 14 14 13 13 12 12 11 10 9 9 9 9 8 9 9 10 11 11 12 12 13 13 13 13 12 13 13 13 14 15 16 15 16 16 15 15 15 16 16 16 17 17 17 16 15 14 14 13 12 11 11 12 14 16 15 12 11 12 14 16 15 16 15 15 17 17 16 14 13 12 12 13 12 12 13 13 12 12 11
24 23 21 19 18 16 15 15 14 13 12 13 13 11 9 8 9 9 9 9 10 10 11 11 12 12 14 14 13 14 13 13 14 14 14 15 16 15 15 15 15 14 15 15 16 17 17 17 17 15 15 14 13 13 13 12 12 12 13 14 13 10 9 11 14 15 16 16 15 15 17 16 14 13 12 12 12 12 12 12 12 12 12 11 11
24 22 21 20 18 16 15 14 14 13 13 14 13 11 9 8 8 8 9 10 10 11 11 11 12 13 15 15 14 14 13 14 14 14 15 15 16 16 15 14 14 14 15 16 16 16 16 16 17 15 14 14 14 14 13 13 12 12 13 12 12 12 12 11 11 14 15 14 14 14 16 15 13 12 12 11 11 11 11 11 11 11 11 11 11
23 23 21 19 18 16 15 14 13 13 13 13 12 10 9 9 8 8 9 10 10 11 11 11 12 13 16 16 15 15 15 15 15 15 16 16 16 16 15 14 14 13 15 16 16 15 15 15 15 15 14 14 14 14 13 13 13 13 13 13 13 13 13 12 11 13 14 13 13 13 15 14 12 12 11 11 10 10 10 10 10 10 10 10 9
23 22 22 20 18 17 16 15 13 12 12 11 11 10 10 10 9 9 10 10 11 12 13 13 13 15 17 17 17 16 16 16 16 16 16 16 16 16 16 14 14 13 14 16 15 15 15 14 14 14 14 14 13 13 13 13 14 14 13 13 12 11 12 13 12 13 13 12 12 13 14 13 11 10 10 10 9 9 9 9 9 8 9 9 8
23 22 22 20 19 17 17 15 13 11 10 10 11 11 11 11 11 11 11 12 12 14 14 14 14 16 17 18 18 17 17 17 17 17 16 16 16 16 16 14 14 13 13 14 13 12 13 14 13 13 13 13 12 11 11 13 15 15 15 14 12 12 11 12 13 14 14 11 11 13 13 11 10 10 9 9 8 8 8 8 8 8 8 8 7
22 22 20 20 19 18 16 14 12 11 10 11 11 11 12 12 12 12 12 13 14 15 15 15 15 15 17 18 18 18 18 18 18 17 17 16 15 15 15 14 13 13 12 12 11 10 12 13 12 12 12 12 11 10 10 12 14 14 14 13 12 12 11 11 12 13 12 10 11 12 11 10 10 9 8 8 7 7 7 7 7 7 7 7 6
19 19 18 19 18 17 16 14 14 13 11 11 11 11 13 13 12 13 13 14 15 15 16 16 17 17 18 18 19 19 18 18 18 17 17 16 15 15 15 14 13 12 11 11 11 11 12 13 12 12 11 11 10 10 9 10 12 13 13 12 12 10 8 9 12 12 9 8 10 11 10 9 9 8 8 7 6 6 6 7 7 6 6 6 6
18 17 19 19 18 18 16 15 16 13 11 11 11 11 12 12 12 13 14 15 15 15 17 17 18 19 19 19 19 20 20 19 18 17 17 15 15 15 14 14 13 11 11 11 13 13 13 13 12 12 12 11 11 9 9 10 11 11 11 11 9 7 6 9 12 11 7 6 9 9 8 8 8 8 7 6 5 5 5 6 6 5 6 5 5
20 18 18 18 19 18 16 17 16 13 11 11 12 12 12 12 11 11 12 13 14 16 17 17 18 19 19 20 20 20 20 19 18 17 16 15 15 14 14 13 12 11 12 12 12 13 13 12 12 12 11 10 9 8 6 6 7 8 10 11 8 6 7 10 12 10 5 5 8 7 7 7 7 7 6 5 4 4 4 5 5 3 4 4 4
21 19 18 18 16 17 17 16 16 15 13 11 11 11 13 12 10 11 10 11 12 14 16 15 16 18 19 20 21 19 18 18 18 17 17 16 15 15 14 12 12 13 13 12 11 12 12 11 10 9 8 7 7 8 7 5 3 4 7 8 5 6 8 9 11 8 5 5 6 6 6 6 6 6 4 4 3 2 2 3 4 2 2 2 2
20 20 19 19 16 15 16 15 15 15 15 12 10 11 13 12 10 10 11 10 12 14 15 15 16 18 19 20 21 19 17 17 17 16 16 16 16 15 14 13 13 14 13 12 12 12 11 10 8 6 4 4 4 6 8 6 4 4 5 6 4 5 8 9 8 5 4 4 4 5 5 4 5 5 4 3 2 1 1 2 2 1 1 1 1
19 18 19 22 19 15 15 14 14 14 15 13 11 12 12 13 11 11 13 13 13 14 15 15 16 16 19 19 20 19 17 16 15 15 15 15 15 15 14 14 14 14 12 11 11 10 8 6 5 2 3 4 4 4 5 5 6 6 5 6 5 6 8 8 7 4 2 4 3 3 3 3 3 3 3 2 1 0 0 1 1 1 0 0 1
17 18 19 22 21 18 17 17 16 15 14 13 13 13 12 12 10 10 13 15 14 14 14 15 16 16 18 18 18 18 17 16 14 14 15 13 13 13 13 12 11 12 10 8 8 7 6 5 4 3 4 5 4 3 4 6 7 7 6 5 4 5 7 8 8 6 2 4 4 3 2 2 2 2 1 2 1 1 0 0 0 1 1 1 2
16 17 18 20 22 21 17 16 18 18 13 12 13 14 13 11 9 10 14 15 13 13 14 15 16 16 18 17 15 15 15 15 15 14 14 13 12 12 11 10 10 11 11 9 8 8 6 5 5 4 3 5 6 5 5 7 8 8 7 6 5 5 6 6 6 7 3 4 5 5 2 1 1 1 0 0 1 1 1 1 1 1 1 1 2
16 17 18 19 22 21 17 15 16 14 12 11 13 15 15 13 12 13 14 14 14 15 15 14 15 16 18 17 14 14 15 13 13 15 13 12 12 11 10 10 10 11 12 10 9 8 6 4 3 3 3 3 5 6 5 6 8 7 8 8 7 7 6 5 5 6 3 2 4 6 3 2 2 2 2 1 1 0 1 1 1 1 1 1 1
16 16 18 19 20 23 22 20 16 13 13 12 12 13 13 12 12 14 14 15 16 15 15 13 14 17 18 17 14 14 14 12 11 14 14 12 12 11 11 11 11 11 10 8 7 6 5 4 3 3 3 1 3 4 4 4 6 7 7 8 8 7 7 6 7 8 4 1 2 6 5 4 4 4 3 3 3 3 2 1 1 1 1 1 1
16 16 17 17 17 21 23 22 22 20 17 15 12 11 12 11 10 12 14 14 15 15 14 12 12 14 16 17 16 14 14 14 13 14 14 13 13 12 12 11 10 9 8 6 5 4 4 3 3 4 3 2 3 3 4 4 5 7 7 7 7 7 6 6 8 9 7 3 1 4 7 7 6 5 5 4 4 4 3 3 3 3 3 3 2
15 16 16 17 17 19 21 20 22 24 22 21 17 13 13 12 9 10 12 12 13 15 14 12 11 12 13 13 13 12 13 14 14 14 13 13 13 13 12 10 10 8 7 6 5 4 4 3 4 4 4 4 3 2 3 5 4 6 8 7 6 7 4 3 7 9 8 5 1 1 6 7 7 7 6 5 5 5 4 3 3 4 4 3 3
15 16 15 17 17 17 19 18 19 21 22 23 20 16 14 13 11 10 11 11 12 14 13 12 12 12 11 10 9 11 13 14 14 13 12 11 12 12 10 9 9 8 6 6 5 5 4 4 3 3 3 4 3 2 3 5 5 4 8 8 6 7 6 4 7 8 9 8 4 2 3 7 8 8 7 7 6 4 4 3 3 4 4 4 3
15 15 16 17 17 16 17 17 18 18 19 19 19 18 15 13 13 11 11 11 12 14 14 12 12 11 10 10 10 12 13 13 13 11 10 10 9 9 9 8 7 7 6 5 4 3 3 3 2 1 1 3 3 1 1 6 5 3 6 8 6 5 6 7 7 8 9 9 7 5 2 5 5 6 6 7 8 6 4 3 4 4 4 3 3
15 15 16 17 16 16 16 16 17 18 17 16 18 17 14 14 14 12 12 11 12 13 13 13 12 11 11 10 10 12 12 12 11 10 10 9 8 8 8 8 7 6 5 4 4 3 3 3 1 1 3 0 3 1 2 4 3 3 5 8 7 4 5 7 7 8 7 7 8 7 4 2 3 2 3 4 7 8 5 4 4 4 4 3 3
15 15 17 17 15 15 16 17 17 17 17 16 16 15 14 15 13 12 13 12 12 13 13 13 12 11 11 10 10 11 11 10 9 9 8 7 8 8 8 7 6 5 4 3 4 2 3 4 3 2 5 3 1 1 3 2 4 5 4 7 6 3 8 5 5 9 7 7 9 8 7 4 2 1 3 2 3 6 6 5 3 4 4 3 4
15 16 16 16 17 16 16 18 17 17 17 16 16 14 14 14 13 13 13 13 13 13 13 13 12 12 11 10 11 10 9 9 8 7 6 6 6 7 8 6 4 5 3 3 5 3 3 2 3 4 5 4 4 2 3 4 6 8 7 9 4 2 6 2 1 7 7 6 7 8 10 7 6 4 3 5 1 3 4 5 4 4 3 3 5
15 16 16 16 17 16 16 18 17 17 17 16 15 14 14 14 13 12 12 12 12 13 14 13 12 12 10 10 10 9 9 8 6 5 5 5 5 7 7 5 4 5 2 3 5 4 2 1 3 4 4 3 5 4 1 4 5 7 8 9 4 2 4 3 5 6 7 7 5 10 12 7 6 5 4 7 3 1 1 2 2 3 4 5 6
16 16 15 16 16 16 17 18 17 17 16 16 15 14 14 13 13 12 11 12 12 13 14 13 12 12 11 11 10 9 8 7 5 5 5 5 6 7 6 4 5 3 2 3 3 3 3 3 3 3 3 3 5 5 3 3 2 3 7 9 4 3 5 5 5 2 4 7 5 8 10 7 7 5 5 8 4 1 1 2 2 1 3 5 6
15 16 15 15 17 17 18 17 17 17 16 16 15 13 12 13 14 12 11 11 12 13 13 13 13 12 12 12 10 9 8 8 6 4 4 5 6 6 5 5 4 2 1 2 3 3 4 4 4 3 3 4 6 5 3 3 1 4 6 9 6 3 4 3 4 2 2 7 5 5 7 10 9 7 7 8 7 4 3 2 3 5 2 3 5
16 17 16 15 16 17 17 18 17 17 16 15 15 14 12 12 14 13 12 12 13 13 12 13 13 13 13 13 11 9 9 8 7 5 3 4 7 6 5 6 4 2 2 3 4 4 2 3 2 4 5 6 8 5 3 1 5 3 1 6 7 5 5 5 6 7 7 8 6 4 7 12 10 8 7 7 9 7 4 3 1 3 4 5 5
18 18 16 16 17 17 17 17 17 16 15 14 14 14 12 12 12 11 11 12 13 13 12 12 13 14 14 13 10 10 9 8 7 6 5 5 7 5 4 5 4 3 2 3 2 2 1 1 2 4 5 7 8 4 3 2 1 7 7 5 8 7 5 6 8 9 10 9 8 4 6 10 11 11 7 6 10 8 5 4 4 3 2 5 5
19 18 17 17 17 17 18 17 17 16 15 14 14 13 13 12 11 11 12 12 12 12 12 12 14 14 14 12 10 10 9 8 7 7 6 6 7 6 5 4 4 3 1 1 1 1 1 1 3 3 5 8 6 2 3 3 6 3 7 2 4 5 3 7 10 8 7 9 9 7 6 8 11 11 7 6 11 11 6 4 3 3 3 1 1
18 18 18 18 17 18 18 17 17 16 15 15 13 13 13 10 10 12 13 12 11 12 13 14 14 14 13 12 11 11 10 8 8 8 7 6 7 8 7 5 4 3 2 1 0 1 1 1 2 2 5 10 6 1 2 5 5 5 1 1 1 1 0 4 7 6 2 5 9 8 5 7 11 7 8 9 11 11 8 6 6 6 4 2 2
18 18 18 18 18 18 18 18 17 16 16 16 14 14 13 10 11 13 11 11 12 13 14 14 13 14 13 12 11 12 11 9 9 8 8 7 6 7 8 7 4 3 3 1 1 2 1 1 2 2 4 9 9 6 3 1 2 5 4 2 3 1 1 4 5 2 3 6 6 8 3 6 11 5 7 9 9 7 8 8 7 6 5 3 2
18 18 18 18 19 19 18 18 18 16 16 16 15 14 14 12 12 13 11 11 12 11 12 13 12 13 13 12 12 12 11 10 10 9 8 9 7 7 8 7 5 4 4 2 1 1 1 2 2 2 4 6 9 9 7 2 3 0 1 5 4 2 2 3 4 2 4 8 3 5 2 5 11 6 5 7 7 9 12 13 8 4 6 6 2
18 18 18 18 20 21 19 19 18 17 17 17 16 15 14 13 13 13 11 11 11 9 11 12 11 11 11 13 12 12 12 11 11 10 9 9 8 7 7 6 5 6 4 2 2 2 2 1 1 1 3 4 6 11 10 5 0 4 2 4 3 2 3 1 2 2 2 5 7 2 2 5 8 8 9 8 5 7 10 11 10 7 9 7 2
19 19 18 19 21 22 20 19 18 18 18 18 17 16 15 14 13 13 11 10 10 10 12 13 11 11 11 12 12 12 12 11 11 11 9 10 9 7 7 5 5 6 5 3 3 3 2 2 1 1 3 3 4 8 9 8 6 3 1 3 3 1 2 2 3 1 2 1 5 4 3 3 1 3 3 6 3 6 7 5 5 7 8 6 3
19 19 19 19 21 22 20 19 19 19 19 19 18 16 15 15 13 13 12 10 10 12 14 12 11 12 12 11 12 12 11 11 11 11 10 10 10 9 9 7 5 5 5 4 5 4 3 3 2 3 3 2 4 6 6 7 10 6 3 4 7 6 5 3 4 5 3 1 2 3 5 10 5 5 7 5 1 6 6 3 2 3 3 3 3
19 18 19 20 21 21 20 20 19 19 19 19 18 16 15 15 14 13 14 12 12 14 15 13 11 12 12 11 12 12 11 11 11 11 11 10 10 10 9 8 6 5 5 5 4 5 3 3 4 4 3 2 2 4 5 5 7 7 5 3 5 7 8 7 2 1 1 2 1 2 4 8 4 4 7 5 1 6 5 4 3 2 0 4 3
19 19 19 19 20 21 21 20 19 20 20 19 18 17 16 15 14 13 14 14 15 16 15 13 13 13 12 11 12 12 11 11 11 11 12 11 10 10 9 8 7 6 5 4 3 4 3 3 5 4 2 2 2 3 4 5 5 5 6 4 4 8 7 4 3 2 4 3 2 3 3 2 4 4 3 5 7 8 5 2 1 2 2 5 4
Wind_Direction
135 126 116 112 111 111 107 106 104 102 101 100 98 97 98 100 102 101 100 102 105 108 116 117 115 116 110 106 102 95 93 96 100 99 100 103 103 104 103 102 101 100 100 101 101 101 101 99 96 94 94 93 91 92 96 96 94 94 93 92 92 92 91 91 90 90 89 87 86 86 87 87 86 86 85 85 84 83 84 85 85 84 83 83 83
136 130 121 117 115 112 109 107 105 104 104 103 101 99 100 101 104 105 105 109 111 113 117 119 121 118 109 105 101 95 95 98 101 102 105 107 106 106 106 105 102 101 102 103 102 101 100 100 98 96 95 94 93 94 98 100 98 96 95 95 93 92 92 91 89 88 88 87 87 85 86 85 84 85 86 87 86 86 86 86 87 86 85 85 83
130 129 126 123 119 117 113 112 112 110 107 105 104 105 107 104 105 108 108 108 111 114 118 123 125 117 109 104 102 99 98 100 101 102 105 109 110 110 111 109 106 105 105 105 103 102 102 102 101 99 97 96 95 95 99 101 99 98 97 97 95 93 92 91 90 89 89 87 85 84 86 84 84 85 86 86 86 87 87 86 85 86 85 84 83
132 131 129 126 122 121 117 118 117 114 109 106 105 106 110 110 109 108 106 108 112 119 124 124 120 114 109 107 105 104 103 105 105 103 105 109 111 112 113 112 110 109 109 108 106 103 103 104 103 102 100 99 98 96 97 99 98 98 97 97 97 96 92 92 91 90 88 87 87 85 86 85 85 85 85 84 83 84 85 85 85 85 84 83 82
134 133 131 127 124 122 120 119 115 112 110 107 107 107 107 108 111 112 117 124 122 123 124 119 116 114 110 110 109 109 110 111 111 109 107 109 112 114 114 115 114 112 111 110 109 106 102 104 105 103 101 100 100 99 98 99 99 99 99 98 97 95 94 93 92 91 89 90 91 88 86 86 85 83 84 83 82 82 82 83 83 83 82 82 81
133 133 130 125 125 123 121 117 111 112 114 117 114 113 114 113 118 125 134 136 132 130 127 123 119 115 112 111 112 116 116 113 113 112 111 112 114 115 115 116 116 114 112 111 111 108 103 105 108 105 102 101 101 100 100 100 101 101 104 103 97 94 93 93 92 92 94 94 92 90 88 87 86 83 84 84 83 83 83 83 82 82 79 79 79
132 131 129 125 126 123 121 119 116 118 119 122 120 124 131 133 137 138 141 139 137 136 131 126 121 116 114 113 115 121 120 115 114 113 113 115 116 116 115 114 115 114 111 111 111 110 106 104 107 107 103 102 101 100 101 102 103 106 108 104 97 93 92 96 97 95 97 96 92 90 88 86 84 81 82 83 84 83 84 84 84 84 81 78 77
128 128 126 125 126 124 122 122 123 124 124 124 124 134 142 145 144 138 140 137 133 133 131 128 123 119 118 118 120 123 123 121 116 113 116 118 118 117 116 114 114 113 112 112 112 113 108 104 106 106 103 101 100 100 102 104 105 107 107 103 98 94 93 98 102 100 98 97 94 92 89 87 85 83 81 81 83 83 82 81 83 85 83 79 77
124 123 123 123 124 125 125 127 128 129 128 127 127 135 142 143 138 135 133 127 126 129 131 132 128 123 122 124 124 125 126 122 116 115 118 120 120 120 119 116 115 113 113 114 115 115 109 106 105 105 104 101 100 100 103 106 106 106 106 104 98 94 93 95 98 97 96 95 94 94 92 88 87 85 82 82 85 85 82 81 80 80 80 79 77
124 120 121 121 124 127 129 130 129 130 128 126 130 135 138 134 127 125 124 125 129 131 132 133 130 125 128 130 126 127 127 121 119 119 120 123 122 123 121 116 116 117 118 118 119 116 110 108 108 107 104 101 101 101 103 106 107 106 108 106 96 93 96 97 99 97 97 95 92 93 93 93 90 87 84 84 84 83 83 83 81 79 78 77 76
121 118 119 120 125 127 127 127 126 127 126 127 128 131 128 119 116 117 122 131 132 132 132 130 131 131 133 132 126 129 128 123 124 122 123 125 125 125 122 118 119 120 121 122 121 116 111 110 109 109 105 102 102 102 105 106 108 109 110 105 94 92 94 97 102 103 101 98 94 93 92 93 91 88 87 84 82 82 82 81 80 80 78 76 76
116 116 119 122 123 122 120 121 124 124 122 121 118 120 116 111 117 121 126 129 130 133 133 132 137 138 138 135 131 131 127 125 126 126 126 126 127 128 124 121 121 122 122 122 121 115 111 110 109 108 105 103 103 104 106 107 109 109 111 102 88 82 93 97 101 103 98 96 95 94 93 93 91 89 87 85 84 83 82 81 80 79 77 76 76
115 115 117 119 118 117 118 117 118 116 113 110 110 117 118 121 126 129 130 127 130 133 133 138 139 139 141 138 136 133 128 127 128 128 126 124 128 131 128 123 123 125 124 120 119 117 114 112 109 107 105 105 106 106 106 109 109 110 112 102 91 88 98 101 101 100 97 97 98 97 97 94 92 91 88 87 86 84 82 81 80 79 77 76 76
116 116 116 116 115 115 116 116 115 115 114 110 110 114 119 126 128 129 130 127 128 129 131 137 136 136 136 134 135 133 130 129 129 128 126 128 131 133 131 126 123 123 123 119 120 120 118 115 110 107 108 109 108 107 107 109 111 115 112 106 107 106 100 101 103 102 99 98 98 99 99 96 94 93 91 90 87 85 83 81 79 77 77 76 76
116 117 116 115 115 115 115 116 116 116 115 112 112 113 119 125 126 127 125 125 126 125 130 134 133 132 130 131 134 132 130 130 131 129 130 133 133 134 133 130 124 121 124 121 121 122 120 117 112 111 111 110 109 107 106 107 115 121 115 109 110 110 104 102 103 103 101 100 100 101 100 97 97 95 94 92 89 87 85 83 79 77 75 75 76
117 116 114 113 113 113 114 115 116 116 115 114 114 116 121 122 119 119 118 119 121 122 126 131 133 132 127 129 133 132 130 130 131 130 130 131 133 136 135 130 124 122 126 123 123 123 119 117 114 115 114 111 109 106 104 105 114 121 116 110 106 110 112 104 99 100 100 102 101 101 101 99 99 98 96 93 91 89 86 83 80 78 75 72 72
113 114 112 112 113 114 115 115 117 117 117 116 117 119 120 118 113 111 112 114 119 123 123 127 130 125 123 128 133 132 131 130 131 129 128 129 133 137 134 128 124 122 123 121 122 122 121 119 115 115 115 113 111 108 106 105 112 119 116 113 113 115 112 104 103 103 102 103 106 105 104 103 102 100 97 94 91 88 85 83 81 79 78 75 71
112 116 115 115 117 117 117 119 120 117 118 116 115 116 116 114 110 111 113 115 118 120 122 125 123 120 125 132 132 131 132 130 128 127 126 128 132 135 133 130 126 120 117 120 122 124 125 123 117 117 116 115 113 111 109 107 112 114 111 106 104 105 108 113 114 112 110 109 115 113 108 107 106 104 100 96 90 86 84 83 83 81 81 79 76
114 119 121 123 123 122 121 120 120 120 121 116 110 109 109 107 104 109 114 116 116 115 118 119 119 126 131 130 129 130 129 126 125 125 124 125 130 135 134 131 127 121 118 119 122 124 124 122 119 119 118 117 115 113 110 109 111 110 106 100 93 89 99 114 114 113 112 112 118 114 110 111 109 105 103 99 91 86 83 81 80 79 81 81 80
114 118 123 127 127 127 126 123 123 124 120 116 111 107 103 102 104 108 112 113 113 114 114 116 123 130 128 124 125 128 124 123 124 123 122 122 126 131 131 130 127 125 120 120 121 122 123 122 121 119 119 118 116 115 112 110 111 109 104 97 89 82 86 102 106 106 107 112 118 114 115 117 113 109 103 99 93 89 85 82 79 75 80 81 80
115 120 126 127 126 125 124 125 128 123 118 116 111 105 100 103 107 109 110 110 112 112 112 119 128 125 121 123 127 126 121 121 122 121 121 120 123 126 127 126 126 125 121 123 124 125 125 123 121 118 115 113 112 112 113 113 111 107 103 95 87 82 90 104 107 110 108 111 116 116 121 122 116 111 105 101 96 93 90 87 86 75 72 71 74
118 122 130 130 129 128 125 128 131 126 124 119 112 110 107 110 112 111 111 112 115 114 114 121 124 120 120 126 128 125 122 121 121 120 119 120 123 127 128 127 127 126 123 124 125 126 127 124 120 115 113 111 110 108 105 109 108 104 101 93 87 93 109 108 106 111 109 110 118 121 125 124 119 115 109 106 100 96 98 92 90 79 73 66 62
122 125 133 133 131 132 132 131 131 130 129 121 116 118 117 118 120 119 116 116 119 117 119 124 122 121 125 128 127 124 124 123 123 121 118 120 123 128 131 130 130 129 128 126 125 127 125 122 117 113 116 120 123 130 129 114 104 102 101 94 93 111 120 114 109 109 104 109 122 128 129 128 125 122 119 116 107 91 95 102 100 85 79 76 55
124 128 133 135 132 131 133 134 133 135 132 124 124 125 121 119 118 119 119 119 118 116 122 127 123 125 129 129 127 126 125 124 124 121 120 120 123 128 131 132 131 130 129 126 124 124 122 119 118 120 125 135 147 159 175 179 130 107 109 109 119 126 116 111 112 113 112 110 124 133 136 140 135 130 128 122 115 85 77 105 109 107 95 91 69
123 127 129 132 133 129 134 136 135 141 136 128 133 131 124 120 116 115 121 126 120 116 121 123 122 125 129 129 128 128 125 124 124 121 121 122 123 124 125 127 127 128 126 125 126 123 121 123 126 131 136 159 176 165 174 184 155 115 110 121 140 132 116 108 114 124 112 97 119 137 140 150 149 141 140 131 114 88 66 91 84 105 135 118 83
124 127 129 132 135 134 137 134 133 143 138 135 138 132 126 120 118 118 123 127 123 123 123 124 125 127 130 130 130 129 125 125 125 124 125 126 125 123 125 129 130 129 126 128 133 129 131 143 153 178 212 210 210 200 189 170 132 112 110 120 119 123 126 118 125 145 101 75 93 119 140 153 160 152 150 154 152 218 50 92 64 15 149 119 14
126 127 133 137 138 139 140 133 133 145 142 141 139 131 125 118 120 130 128 125 125 129 128 130 132 132 132 131 132 129 126 129 131 131 131 134 135 130 130 134 138 136 136 146 152 148 157 181 198 225 232 212 187 166 163 147 130 120 117 125 118 121 132 126 137 164 129 72 73 72 127 151 167 177 165 167 184 226 241 153 259 355 329 353 346
129 131 135 136 136 139 144 137 135 143 140 136 134 131 130 125 131 135 128 125 127 130 130 132 133 137 136 132 134 130 131 137 137 138 138 143 146 139 137 140 147 144 145 157 159 156 159 175 208 230 207 185 166 151 152 147 135 129 126 122 109 97 108 114 144 177 151 82 63 48 87 142 138 150 78 186 206 233 216 236 288 306 291 325 324
134 135 135 135 137 138 142 135 131 133 127 126 129 132 134 131 133 133 129 130 133 133 129 129 132 139 138 132 134 133 134 139 138 140 143 148 147 147 151 151 155 147 143 155 164 163 153 146 180 195 166 169 172 168 169 149 130 134 139 131 121 104 111 121 135 152 137 84 54 48 64 93 86 100 91 67 54 4 230 225 261 299 290 327 324
138 137 136 139 141 139 139 137 136 131 124 129 126 125 130 126 127 131 132 132 137 140 131 129 134 138 139 136 140 139 136 141 139 141 150 155 152 155 158 159 164 154 146 157 167 168 169 163 150 147 152 139 146 149 141 125 117 125 133 130 125 120 130 140 136 136 144 171 64 56 59 74 83 86 87 75 60 57 56 70 75 49 49 45 32
138 136 135 139 141 138 138 140 142 140 136 139 132 126 134 133 129 129 130 129 134 141 135 134 137 136 138 138 144 146 144 150 146 145 154 157 157 160 163 167 168 161 159 164 169 172 176 177 135 129 141 119 136 160 137 120 124 129 126 122 124 131 140 157 152 140 142 164 67 56 63 71 82 78 75 74 70 62 65 70 67 73 66 67 70
138 133 135 141 140 136 137 138 141 145 146 147 148 150 149 146 142 131 131 133 132 134 134 138 143 137 133 131 139 144 144 147 145 148 156 158 160 162 166 169 162 162 165 156 155 149 142 135 117 119 138 156 162 196 167 131 136 141 128 121 122 127 127 161 151 132 130 141 182 47 64 68 71 74 75 69 69 64 62 67 69 78 79 78 82
136 135 142 143 138 135 136 138 140 146 147 147 150 151 147 145 145 135 135 141 138 136 134 137 142 137 126 120 127 133 138 143 144 149 153 155 157 155 156 155 147 149 144 132 128 125 130 127 113 107 147 191 164 184 190 129 123 139 131 125 114 120 127 137 139 138 138 134 158 202 70 74 71 69 73 63 57 57 54 63 77 87 89 88 81
135 141 147 139 136 137 137 139 142 143 141 141 143 143 144 144 143 142 141 140 139 137 135 135 137 136 128 123 125 128 134 138 140 144 144 145 146 142 140 134 130 129 129 129 110 106 128 114 105 120 216 219 160 189 192 124 118 109 120 130 129 148 153 125 123 143 137 126 148 172 88 66 75 71 67 56 48 47 53 71 88 99 98 86 70
139 145 143 136 139 142 139 139 141 138 136 138 138 141 144 142 142 144 142 140 138 136 137 138 137 137 133 128 129 131 132 134 136 137 138 141 139 135 131 126 125 120 126 127 93 96 102 61 20 283 311 266 137 116 77 114 123 78 72 108 127 160 147 119 127 140 130 133 146 153 141 74 62 49 13 21 44 47 55 78 90 96 97 76 49
144 144 139 139 141 140 140 139 139 136 135 137 137 138 138 140 143 141 140 142 140 138 139 139 137 137 135 131 131 131 132 133 134 133 133 137 135 130 127 126 125 119 122 106 86 81 66 37 16 0 349 13 123 138 110 132 146 134 119 124 130 120 125 140 160 142 138 151 144 139 150 145 134 222 293 288 51 51 53 65 86 88 86 66 34
144 141 140 141 140 140 142 140 140 137 136 137 135 134 134 139 141 138 142 145 143 141 140 138 137 137 134 133 132 132 133 129 132 141 134 134 135 129 126 120 114 121 120 94 84 50 33 39 31 18 3 355 305 285 150 183 160 162 172 144 138 66 118 170 119 128 136 141 153 158 158 160 155 155 215 218 157 62 64 58 75 85 71 46 28
144 144 144 143 139 143 144 139 139 137 137 139 135 134 138 141 140 139 142 142 143 141 140 141 139 137 137 139 137 135 136 132 137 140 124 134 134 121 123 111 110 123 96 81 88 38 7 82 54 12 353 349 315 318 254 222 175 166 158 137 134 61 118 148 100 126 158 150 178 172 161 170 157 129 179 196 196 81 126 36 42 83 63 40 33
149 146 145 144 139 139 137 136 140 139 140 141 138 139 143 144 140 140 141 141 143 140 140 143 142 142 146 146 141 139 144 143 140 119 102 120 123 117 122 109 110 119 49 68 84 43 34 59 59 26 10 0 317 315 319 301 1 81 118 130 146 109 110 141 141 178 186 156 170 175 168 166 156 149 159 177 190 179 193 290 296 247 62 38 31
149 145 146 143 137 137 137 140 143 141 143 144 143 146 149 148 144 145 147 144 143 143 144 146 146 148 150 148 145 150 155 151 147 127 101 116 124 128 136 119 101 99 70 69 77 66 41 35 37 9 353 321 296 275 281 298 34 51 82 123 140 147 138 166 181 191 167 150 164 209 184 157 160 180 165 163 177 168 185 244 283 259 263 356 353
146 147 148 145 141 142 143 145 146 146 149 151 151 153 154 152 149 151 151 147 147 151 151 150 150 149 152 152 150 158 158 155 156 147 128 125 129 133 140 129 113 128 116 73 83 90 35 33 29 324 311 297 291 263 242 273 131 131 112 139 152 181 175 181 190 190 196 176 174 230 184 156 155 174 164 158 169 173 194 189 175 229 244 299 304
150 153 153 150 147 148 150 149 150 153 155 157 157 155 155 155 155 156 151 149 154 157 155 154 149 150 158 157 154 162 160 157 160 154 146 131 130 139 140 124 113 131 98 47 78 115 58 35 356 316 302 289 296 301 162 126 159 194 198 169 164 178 183 201 215 211 207 187 168 185 190 166 150 158 166 161 171 184 199 166 123 145 217 293 290
154 158 157 154 151 152 155 152 153 158 159 160 159 156 156 155 156 158 155 155 160 159 155 153 149 152 159 157 161 171 164 159 165 158 156 153 146 145 143 126 113 125 119 340 214 165 114 26 352 334 313 297 293 323 174 248 310 211 179 181 166 167 204 232 240 229 198 180 169 171 199 173 143 156 187 196 184 181 179 161 142 176 200 233 268
159 162 161 159 155 155 157 155 158 160 159 160 159 157 155 149 144 153 160 159 157 157 153 151 153 156 158 159 170 175 163 163 171 161 162 174 161 149 158 166 142 142 178 204 297 327 31 351 312 281 313 312 303 332 213 248 344 40 89 288 99 109 281 248 244 230 192 200 184 173 191 152 135 174 214 204 188 173 178 185 175 185 191 173 134
164 166 166 163 157 158 159 159 160 159 159 160 160 156 154 147 137 144 155 150 146 152 152 153 157 160 160 163 171 172 164 167 171 170 168 171 166 163 170 170 154 171 195 221 293 271 240 205 267 291 324 323 324 338 332 242 64 32 8 40 53 41 308 327 315 259 288 276 192 150 194 156 139 190 218 183 175 181 199 195 172 173 185 203 201
171 171 170 165 158 159 160 159 161 161 160 160 161 160 156 150 142 143 150 147 147 153 156 159 161 163 164 165 169 169 169 170 171 176 172 169 181 180 166 156 158 187 210 235 246 232 218 205 250 319 324 322 332 338 339 26 113 242 62 102 90 111 184 321 345 292 282 301 335 102 205 193 140 151 205 186 186 198 204 195 181 184 196 207 224
176 173 171 167 158 158 161 159 161 161 160 160 161 163 160 158 155 154 155 153 153 159 162 161 163 169 163 160 167 170 172 172 172 176 170 170 185 183 167 161 175 190 201 221 230 250 252 231 218 322 316 311 339 342 340 359 298 239 198 123 131 157 198 199 48 315 296 311 319 351 211 210 167 176 195 195 197 191 199 200 194 189 190 207 264
176 175 173 168 157 157 162 161 161 161 161 162 161 162 163 163 166 165 164 163 157 158 166 164 168 176 161 156 167 171 175 175 172 176 171 171 178 178 179 183 194 194 188 205 222 238 212 156 167 298 319 317 338 337 335 351 343 296 35 24 341 312 224 150 114 286 299 320 308 315 346 353 187 212 159 153 210 227 206 205 205 188 185 213 248
174 176 173 166 157 159 163 161 163 163 162 164 163 164 165 164 168 168 168 171 162 158 167 167 167 171 160 159 170 169 176 179 173 175 172 175 180 177 186 197 200 181 181 219 215 203 191 156 195 251 268 284 328 323 318 351 348 339 26 351 328 341 323 286 174 196 233 195 333 331 1 15 23 332 3 75 189 261 221 201 241 181 180 246 233
174 178 174 167 161 161 163 163 165 164 163 166 165 165 167 167 171 170 167 168 163 158 162 162 163 167 162 166 172 170 177 178 173 179 177 180 187 181 184 197 201 178 187 227 208 186 205 205 221 238 244 239 284 308 307 339 338 331 348 341 322 326 314 311 352 100 266 220 268 352 31 18 352 286 342 16 269 272 243 214 221 146 110 305 274
176 181 171 165 164 164 164 165 167 166 164 167 168 166 167 171 174 172 166 161 161 160 158 159 163 169 170 169 170 172 182 179 172 180 182 181 190 188 182 187 198 195 195 222 213 200 229 233 221 219 222 236 245 284 291 295 299 302 307 304 286 279 273 295 319 332 311 294 339 6 83 48 301 264 300 305 273 267 265 247 208 113 276 292 295